Weather reports worldwide

Advertisment
Shap, United Kingdom (3225): temperature & dewpoint: 13.11.2019 17:00:00 - 19.11.2019 17:00:00 (GMT)Shap, United Kingdom (3225): temperature -20cm & temperature -100cm: 13.11.2019 17:00:00 - 19.11.2019 17:00:00 (GMT)Shap, United Kingdom (3225): wind speed & gusts: 13.11.2019 17:00:00 - 19.11.2019 17:00:00 (GMT)Shap, United Kingdom (3225): wind direction: 13.11.2019 17:00:00 - 19.11.2019 17:00:00 (GMT)Shap, United Kingdom (3225): reduced air pressure: 13.11.2019 17:00:00 - 19.11.2019 17:00:00 (GMT)Shap, United Kingdom (3225): visibility: 13.11.2019 17:00:00 - 19.11.2019 17:00:00 (GMT)Shap, United Kingdom (3225): sunshine duration: 13.11.2019 17:00:00 - 19.11.2019 17:00:00 (GMT)Shap, United Kingdom (3225): precipitation: 13.11.2019 17:00:00 - 19.11.2019 17:00:00 (GMT)
Date & Time tt [°C] td [°C] tt -20cm [°C] tt -100cm [°C] ff [km/h] ff [kn] fx [km/h] fx [kn] dd ppp [hPa] vv [km] sd [min] rr [mm]
19.11.2019 17:00:00 1,5 0,3 - - 11 6 - - S 1013,4 50 0 0,0
19.11.2019 16:00:00 1,3 -0,2 - - 11 6 - - S 1013,3 50 0 0,0
19.11.2019 15:00:00 2,7 -0,2 - - 11 6 - - SSE 1013,2 60 0 0,0
19.11.2019 14:00:00 3,8 0,5 - - 8 4 - - S 1013,5 75 0 0,0
19.11.2019 13:00:00 3,2 -1,1 - - 11 6 - - SE 1014,2 70 6 0,0
19.11.2019 12:00:00 2,0 -0,9 - - 11 6 - - SSE 1014,5 75 0 0,0
19.11.2019 11:00:00 2,6 -2,0 - - 15 8 - - S 1014,7 75 0 0,0
19.11.2019 10:00:00 1,4 -1,2 - - 13 7 - - SSW 1015,3 75 0 0,0
19.11.2019 09:00:00 0,6 -1,7 5,2 8,0 16 9 - - S 1015,6 75 0 0,0
19.11.2019 08:00:00 -0,2 -1,3 - - 15 8 - - S 1015,8 65 0 0,0
19.11.2019 07:00:00 -2,3 -2,9 - - 13 7 - - SSE 1015,6 35 0 0,0
19.11.2019 06:00:00 -1,7 -2,3 - - 15 8 - - SE 1015,5 30 0 0,0
19.11.2019 05:00:00 -2,6 -2,8 - - 8 4 - - ESE 1016,0 20 0 0,0
19.11.2019 04:00:00 -5,2 -5,8 - - 2 1 - - SSE 1016,7 29 0 0,0
19.11.2019 03:00:00 -5,4 -5,8 - - 2 1 - - W 1017,2 24 0 0,0
19.11.2019 02:00:00 -4,4 -5,0 - - 0 0 - - N 1017,3 15 0 0,0
19.11.2019 01:00:00 -4,8 -5,2 - - 2 1 - - SW 1017,5 21 0 0,0
19.11.2019 00:00:00 -5,8 -6,6 - - 0 0 - - N 1018,1 40 - 0,0
18.11.2019 23:00:00 -5,3 -5,7 - - 2 1 - - SW 1018,2 30 0 0,0
18.11.2019 22:00:00 -5,5 -6,2 - - 2 1 - - SE 1018,5 29 0 0,0
18.11.2019 21:00:00 -5,2 -5,6 - - 4 2 - - WSW 1019,0 30 0 0,0
18.11.2019 20:00:00 -5,3 -6,0 - - 0 0 - - N 1019,0 45 0 0,0
18.11.2019 19:00:00 -4,2 -4,7 - - 4 2 - - ESE 1019,0 30 0 0,0
18.11.2019 18:00:00 -3,8 -4,3 - - 0 0 - - N 1018,8 0,1 0 0,0
18.11.2019 17:00:00 -2,4 -3,1 - - 2 1 - - S 1018,7 28 0 0,0
18.11.2019 16:00:00 -0,5 -2,2 - - 0 0 - - N 1018,3 23 42 0,0
18.11.2019 15:00:00 1,2 -0,5 - - 8 4 - - E 1018,3 30 60 0,0
18.11.2019 14:00:00 3,3 0,4 - - 8 4 - - NNW 1018,2 60 60 0,0
18.11.2019 13:00:00 3,2 0,8 - - 5 3 - - N 1018,5 55 60 0,0
18.11.2019 12:00:00 3,1 0,3 - - 0 0 - - N 1018,8 40 60 0,2
18.11.2019 11:00:00 2,2 0,3 - - 4 2 - - E 1019,6 40 60 0,0
18.11.2019 10:00:00 0,9 0,7 - - 2 1 - - SE 1019,7 24 60 0,0
18.11.2019 09:00:00 -2,5 -2,6 6,0 8,0 0 0 - - N 1020,0 35 24 0,0
18.11.2019 08:00:00 -4,1 -4,5 - - 0 0 - - N 1020,2 30 0 0,0
18.11.2019 07:00:00 -3,9 -4,4 - - 0 0 - - N 1020,3 16 0 0,0
18.11.2019 06:00:00 -2,6 -2,7 - - 0 0 - - N 1019,9 15 0 0,0
18.11.2019 05:00:00 -2,6 -2,7 - - 0 0 - - N 1019,7 13 0 0,0
18.11.2019 04:00:00 -2,9 -3,1 - - 0 0 - - N 1019,7 12 0 0,0
18.11.2019 03:00:00 -2,5 -2,6 - - 0 0 - - N 1019,5 14 0 0,0
18.11.2019 02:00:00 -2,3 -2,5 - - 0 0 - - N 1019,3 11 0 0,0
18.11.2019 01:00:00 -2,2 -2,5 - - 0 0 - - N 1019,8 15 0 0,0
18.11.2019 00:00:00 -0,8 -1,0 - - 4 2 - - NE 1019,9 14 - 0,0
17.11.2019 23:00:00 -0,2 -0,4 - - 2 1 - - NNE 1019,5 14 0 0,0
17.11.2019 22:00:00 0,7 0,4 - - 5 3 - - NE 1019,2 18 0 0,0
17.11.2019 21:00:00 1,3 0,9 - - 9 5 - - NNW 1018,9 19 0 0,0
17.11.2019 20:00:00 3,0 2,8 - - 9 5 - - NNW 1018,7 10 0 0,0
17.11.2019 19:00:00 4,1 4,0 - - 8 4 - - NNW 1018,5 8 0 0,0
17.11.2019 18:00:00 3,9 3,7 - - 9 5 - - N 1018,0 9 0 0,0
17.11.2019 17:00:00 4,1 3,7 - - 8 4 - - NW 1017,5 21 0 0,0
17.11.2019 16:00:00 5,1 4,7 - - 11 6 - - NNW 1016,9 27 0 0,0
17.11.2019 15:00:00 5,3 4,9 - - 15 8 - - NNW 1016,1 23 0 0,0
17.11.2019 14:00:00 5,8 5,4 - - 11 6 - - NNW 1015,3 20 0 0,0
17.11.2019 13:00:00 5,7 5,5 - - 11 6 - - NNW 1015,1 9 0 0,8
17.11.2019 12:00:00 5,4 5,0 - - 9 5 - - NNW 1015,0 11 0 0,4
17.11.2019 11:00:00 5,1 4,7 - - 11 6 - - NNW 1014,6 20 0 0,2
17.11.2019 10:00:00 4,9 4,7 - - 8 4 - - NNW 1014,1 22 0 0,2
17.11.2019 09:00:00 4,5 4,4 6,0 8,0 4 2 - - N 1013,2 14 0 0,4
17.11.2019 08:00:00 4,2 4,2 - - 5 3 - - N 1012,6 8 0 0,6
17.11.2019 07:00:00 4,4 4,3 - - 9 5 - - NNW 1011,7 5 0 1,2
17.11.2019 06:00:00 4,4 4,3 - - 4 2 - - N 1011,1 6 0 0,6
17.11.2019 05:00:00 4,4 4,4 - - 8 4 - - NNW 1010,5 8 0 1,0
17.11.2019 04:00:00 4,5 4,5 - - 5 3 - - NNW 1010,1 3,6 0 1,4
17.11.2019 03:00:00 4,6 4,6 - - 8 4 - - NNW 1009,7 4,1 0 1,4
17.11.2019 02:00:00 4,7 4,7 - - 9 5 - - NNW 1009,6 3,9 0 1,0
17.11.2019 01:00:00 4,8 4,8 - - 4 2 - - NNE 1009,3 4,9 0 0,4
17.11.2019 00:00:00 4,9 4,8 - - 5 3 - - NNW 1009,0 5 - 0,2
16.11.2019 23:00:00 4,9 4,8 - - 5 3 - - NNW 1008,5 7 0 0,0
16.11.2019 22:00:00 5,0 4,9 - - 5 3 - - NNW 1008,3 3,6 0 0,0
16.11.2019 21:00:00 5,0 4,9 - - 5 3 - - NNW 1008,2 7 0 0,0
16.11.2019 20:00:00 5,1 4,9 - - 9 5 - - NNW 1008,1 9 0 0,0
16.11.2019 19:00:00 5,2 5,1 - - 9 5 - - NNW 1007,9 10 0 0,8
16.11.2019 18:00:00 5,5 5,2 - - 9 5 - - NNW 1007,7 7 0 0,0
16.11.2019 17:00:00 5,8 5,3 - - 9 5 - - NW 1007,5 5 0 0,0
16.11.2019 16:00:00 6,0 5,5 - - 11 6 - - NW 1007,4 10 0 0,0
16.11.2019 15:00:00 6,3 5,2 - - 11 6 - - NW 1007,3 24 0 0,0
16.11.2019 14:00:00 6,5 5,3 - - 15 8 - - NNW 1007,1 55 0 0,0
16.11.2019 13:00:00 6,5 5,3 - - 15 8 - - NNW 1007,3 45 0 0,0
16.11.2019 12:00:00 6,1 5,1 - - 16 9 - - NNW 1007,6 45 0 0,0
16.11.2019 11:00:00 6,0 5,2 - - 18 10 - - NNW 1008,0 40 0 0,0
16.11.2019 10:00:00 5,4 4,6 - - 21 11 - - NNW 1008,4 18 0 0,0
16.11.2019 09:00:00 5,2 4,3 5,7 8,2 16 9 - - NW 1008,4 45 0 0,0
16.11.2019 08:00:00 4,7 4,1 - - 18 10 - - NNW 1008,5 26 0 0,0
16.11.2019 07:00:00 4,6 3,8 - - 16 9 - - NW 1008,7 30 0 0,0
16.11.2019 06:00:00 4,5 4,0 - - 15 8 - - NW 1008,7 19 0 0,0
16.11.2019 05:00:00 4,4 3,9 - - 16 9 - - NW 1008,8 15 0 0,0
16.11.2019 04:00:00 4,3 3,7 - - 16 9 - - NNW 1008,9 21 0 0,0
16.11.2019 03:00:00 4,4 3,4 - - 18 10 - - NNW 1009,0 29 0 0,0
16.11.2019 02:00:00 4,4 3,2 - - 16 9 - - NNW 1009,3 28 0 0,0
16.11.2019 01:00:00 4,4 3,4 - - 22 12 - - N 1009,7 27 0 0,0
16.11.2019 00:00:00 4,6 3,6 - - 21 11 - - N 1010,5 26 - 0,0
15.11.2019 23:00:00 4,5 3,4 - - 13 7 - - NNW 1010,9 30 0 0,0
15.11.2019 22:00:00 4,8 3,2 - - 18 10 - - NNW 1011,0 35 0 0,0
15.11.2019 21:00:00 4,8 3,7 - - 16 9 - - N 1011,4 10 0 0,0
15.11.2019 20:00:00 4,9 4,2 - - 21 11 - - N 1011,8 4,9 0 0,8
15.11.2019 19:00:00 5,0 3,3 - - 21 11 - - NNE 1011,7 30 0 0,0
15.11.2019 18:00:00 5,1 3,2 - - 18 10 - - NNE 1011,5 29 0 0,2
15.11.2019 17:00:00 5,5 2,8 - - 21 11 - - NNE 1011,7 40 0 0,0
15.11.2019 16:00:00 5,6 4,0 - - 18 10 - - NNE 1011,9 30 0 0,0
15.11.2019 15:00:00 6,7 4,4 - - 16 9 - - NNE 1011,8 40 24 0,0
15.11.2019 14:00:00 6,5 4,7 - - 15 8 - - N 1011,7 35 12 0,2
15.11.2019 13:00:00 6,5 4,5 - - 21 11 - - N 1012,3 65 6 0,0
15.11.2019 12:00:00 6,3 4,2 - - 16 9 - - N 1012,7 60 36 0,0
15.11.2019 11:00:00 5,5 3,7 - - 18 10 - - N 1012,9 70 48 0,0
15.11.2019 10:00:00 5,0 3,4 - - 18 10 - - N 1012,7 55 12 0,0
15.11.2019 09:00:00 4,2 3,2 5,7 8,2 15 8 - - N 1012,8 75 0 0,0
15.11.2019 08:00:00 4,4 3,1 - - 18 10 - - NNE 1012,5 50 0 0,0
15.11.2019 07:00:00 4,0 3,1 - - 21 11 - - N 1011,8 50 0 0,0
15.11.2019 06:00:00 3,7 2,7 - - 22 12 52 28 N 1011,4 60 0 0,0
15.11.2019 05:00:00 4,4 2,7 - - 22 12 - - N 1010,8 55 0 0,0
15.11.2019 04:00:00 3,0 2,4 - - 21 11 - - NW 1010,8 55 0 0,0
15.11.2019 03:00:00 2,8 1,9 - - 16 9 - - NNW 1011,0 50 0 0,0
15.11.2019 02:00:00 2,8 1,7 - - 22 12 - - NNW 1011,0 50 0 0,0
15.11.2019 01:00:00 2,5 1,5 - - 21 11 - - NNW 1011,1 45 0 0,0
15.11.2019 00:00:00 2,4 1,2 - - 21 11 - - NNW 1011,2 40 - 0,4
14.11.2019 23:00:00 2,7 1,4 - - 22 12 46 25 NNW 1010,8 19 0 0,0
14.11.2019 22:00:00 3,0 1,3 - - 26 14 - - N 1010,6 50 0 0,0
14.11.2019 21:00:00 3,1 1,2 - - 26 14 - - N 1010,1 50 0 0,0
14.11.2019 20:00:00 3,4 1,2 - - 29 16 46 25 NNW 1009,9 45 0 0,0
14.11.2019 19:00:00 3,5 1,4 - - 26 14 - - N 1009,5 50 0 0,0
14.11.2019 18:00:00 3,5 1,5 - - 26 14 - - NNW 1008,8 50 0 0,0
14.11.2019 17:00:00 3,7 1,3 - - 28 15 46 25 N 1007,8 55 0 0,0
14.11.2019 16:00:00 3,8 1,3 - - 26 14 - - N 1007,3 55 0 0,0
14.11.2019 15:00:00 3,9 1,3 - - 22 12 52 28 N 1006,4 55 0 0,0
14.11.2019 14:00:00 3,7 1,1 - - 26 14 - - N 1006,2 75 0 0,0
14.11.2019 13:00:00 3,9 1,6 - - 29 16 46 25 N 1005,7 75 6 0,0
14.11.2019 12:00:00 3,9 1,7 - - 22 12 - - N 1005,5 70 12 0,0
14.11.2019 11:00:00 3,5 1,5 - - 24 13 - - N 1005,0 65 0 0,0
14.11.2019 10:00:00 2,9 1,0 - - 22 12 - - N 1004,7 75 0 0,0
14.11.2019 09:00:00 2,1 0,9 5,7 8,2 26 14 - - N 1004,3 70 0 0,0
14.11.2019 08:00:00 2,6 1,2 - - 21 11 - - N 1003,0 75 0 0,0
14.11.2019 07:00:00 2,9 0,8 - - 18 10 - - NNE 1001,7 75 0 0,0
14.11.2019 06:00:00 2,5 1,1 - - 18 10 - - NNE 1000,8 75 0 0,0
14.11.2019 05:00:00 2,8 1,4 - - 13 7 - - NNE 1000,1 75 0 0,2
14.11.2019 04:00:00 2,5 1,3 - - 11 6 - - NNE 999,2 75 0 0,0
14.11.2019 03:00:00 1,2 0,8 - - 5 3 - - NW 998,7 18 0 0,0
14.11.2019 02:00:00 0,1 -0,1 - - 4 2 - - NNE 998,0 3,5 0 0,0
14.11.2019 01:00:00 0,2 -0,1 - - 5 3 - - NE 997,4 4,2 0 0,0
14.11.2019 00:00:00 0,7 0,0 - - 2 1 - - N 996,9 5 - 0,0
13.11.2019 23:00:00 2,1 1,7 - - 9 5 - - NE 996,2 9 0 0,0
13.11.2019 22:00:00 1,2 1,2 - - 9 5 - - E 995,9 6 0 0,0
13.11.2019 21:00:00 0,1 -0,2 - - 2 1 - - NNE 995,5 4,6 0 0,0
13.11.2019 20:00:00 0,1 0,0 - - 4 2 - - SW 995,6 30 0 0,0
13.11.2019 19:00:00 -1,1 -1,6 - - 5 3 - - SW 995,4 35 0 0,0
13.11.2019 18:00:00 -0,3 -1,4 - - 2 1 - - SSE 995,3 30 0 0,0
13.11.2019 17:00:00 0,8 0,2 - - 9 5 - - SSE 994,7 45 0 0,0

tt = temperature
td = dewpoint
tt -20cm = temperature -20cm
tt -100cm = temperature -100cm
ff = wind speed
fx = gusts
dd = wind direction
ppp = reduced air pressure
vv = visibility
sd = sunshine duration
rr = precipitation

Next stations